Skip Page Navigation
NASA JPL Caltech
NASA Logo - Jet Propulsion Laboratory + View the NASA Portal
+ Center for Near-Earth Object Studies
JPL Home Earth Solar System Stars & Galaxies Technology
JPL Solar System Dynamics
BODIES ORBITS EPHEMERIDES TOOLS PHYSICAL DATA DISCOVERY FAQ SITE MAP
JPL Small-Body Database Browser
Search: [ help ]  
136416 (2005 CY43)
Classification: Main-belt Asteroid          SPK-ID: 2136416
Ephemeris | Orbit Diagram | Orbital Elements | Mission Design | Physical Parameters | Discovery Circumstances | Close-Approach Data ]

[ show orbit diagram ]
Orbital Elements at Epoch 2459000.5 (2020-May-31.0) TDB
Reference: JPL 19 (heliocentric ecliptic J2000)
 Element Value Uncertainty (1-sigma)   Units 
e .2886890567476508 3.793e-08  
a 2.727465276025819 1.6534e-08 au
q 1.940075898177954 9.9365e-08 au
i 13.45679466905181 6.5735e-06 deg
node 334.6764420535694 1.942e-05 deg
peri 309.1176701776422 2.2749e-05 deg
M 31.94527358908574 1.3347e-05 deg
tp 2458854.503856736104
(2020-Jan-06.00385674)
6.0339e-05 TDB
period 1645.270353638776
4.50
1.4961e-05
4.096e-08
d
yr
n .2188090238201904 1.9897e-09 deg/d
Q 3.514854653873684 2.1307e-08 au
  Orbit Determination Parameters
   # obs. used (total)      579  
   data-arc span      7147 days (19.57 yr)  
   first obs. used      2001-04-01  
   last obs. used      2020-10-25  
   planetary ephem.      DE431  
   SB-pert. ephem.      SB431-N16  
   condition code      0  
   norm. resid. RMS      .47466  
   source      ORB  
   producer      Otto Matic  
   solution date      2020-Nov-12 15:52:51  

Additional Information
 Earth MOID = .954616 au 
 Jupiter MOID = 1.85239 au 
 T_jup = 3.256 
[ hide covariance matrix ]
Orbital Elements at Epoch 2457657.5 (2016-Sep-26.0) TDB
Reference: JPL 19 (heliocentric ecliptic J2000)
 Element Value Uncertainty (1-sigma)   Units 
e .2879688344896695 3.7893e-08  
q 1.942728632689829 9.9301e-08 au
tp 2457209.427113681796
(2015-Jul-05.92711368)
5.5017e-05 TDB
node 334.7171309298016 1.9426e-05 deg
peri 309.2010599413711 2.2773e-05 deg
i 13.45141541209315 6.5725e-06 deg
  Orbit Determination Parameters
   # obs. used (total)      579  
   data-arc span      7147 days (19.57 yr)  
   first obs. used      2001-04-01  
   last obs. used      2020-10-25  
   planetary ephem.      DE431  
   SB-pert. ephem.      SB431-N16  
   condition code      0  
   norm. resid. RMS      .47466  
   source      ORB  
   producer      Otto Matic  
   solution date      2020-Nov-12 15:52:51  

Additional Information
 Jupiter MOID = 1.85239 au 
 T_jup = 3.256 
Orbit Covariance (6×6)
  e q tp node peri i
e 1.435878509922845E-15 -3.740752291457026E-15 7.568926182563809E-13 6.84479632818675E-15 1.367126541976568E-13 1.301161113106461E-16
q -3.740752291457026E-15 9.860642004384162E-15 -1.902229772360396E-12 -1.013810743449587E-14 -3.364152575082098E-13 2.666507659389775E-15
tp 7.568926182563809E-13 -1.902229772360396E-12 3.026884944550415E-9 -3.30363970363526E-12 6.785648274890271E-10 -1.284238328023009E-11
node 6.84479632818675E-15 -1.013810743449587E-14 -3.30363970363526E-12 3.773538858065861E-10 -3.658546502703534E-10 5.832688327085814E-11
peri 1.367126541976568E-13 -3.364152575082098E-13 6.785648274890271E-10 -3.658546502703534E-10 5.186210256762763E-10 -5.885651340631749E-11
i 1.301161113106461E-16 2.666507659389775E-15 -1.284238328023009E-11 5.832688327085814E-11 -5.885651340631749E-11 4.319808059657792E-11

Ephemeris | Orbit Diagram | Orbital Elements | Mission Design | Physical Parameters | Discovery Circumstances | Close-Approach Data ]

Physical Parameter Table
Parameter Symbol Value Units Sigma Reference Notes
absolute magnitude H 15.3   n/a MPO248167  
diameter diameter 2.358 km 0.566 urn:nasa:pds:neowise_diameters_albedos::2.0[mainbelt] (http://adsabs.harvard.edu/abs/2011ApJ...741...68M)  
geometric albedo albedo 0.318   0.109 urn:nasa:pds:neowise_diameters_albedos::2.0[mainbelt] (http://adsabs.harvard.edu/abs/2011ApJ...741...68M)  

136416 (2005 CY43)          Discovered 2005-Feb-02 by Spacewatch at Kitt Peak
Reference: 20060907/Numbers.arcLast Updated: 2006-09-10

[ hide close-approach data ]
Close-Approach Data   ...sorted by Date/Time (TDB)
Date/Time (TDB) Time Uncertainty
(days_HH:MM)
Body Nominal Distance (au) Minimum Distance (au) Maximum Distance (au) V-relative (km/s) V-infinity (km/s) JD (TDB) Time Uncertainty (minutes) Semi-major axis (km) Semi-minor axis (km) range-LOV angle (deg) N-sigma BP Orbit Ref. Reference Modified
1954-Jul-13 23:45 00:02 Jupiter 1.84837640502177 1.84837568356113 1.8483771264824 2.24308891374063 2.02853235525134 2434937.489851421 1.78705879232394 1427.53233536502 59.3268586786924 88.8020346972598 1171042.89476052 T 19 CATAB v2.0f-lin.ifort 2020-Nov-12 15:52:52 2020-Nov-12 15:52
1991-Jan-22 14:59 < 00:01 Jupiter 1.94915859349746 1.94915771446753 1.9491594725614 3.31258018545762 3.17869020634232 2448279.124470733 0.738407865499469 880.582197076333 28.9829145457987 -88.5019230541606 1701205.90330335 T 19 CATAB v2.0f-lin.ifort 2020-Nov-12 15:52:52 2020-Nov-12 15:52
2049-Mar-15 14:12 < 00:01 Jupiter 1.87239590350247 1.8723950437693 1.8723967632365 2.0132452826351 1.7743757564249 2469516.091967510 0.975506039735283 763.299647481491 75.0666820954092 87.0676702350505 1424218.23298132 T 19 CATAB v2.0f-lin.ifort 2020-Nov-12 15:52:52 2020-Nov-12 15:52
2085-Sep-29 11:38 00:02 Jupiter 1.88687161218674 1.88687086901114 1.8868723553648 3.17210520022369 3.02728346897047 2482862.984675508 1.80122783603642 578.956453736792 27.1378030657605 -89.9191164711396 1757823.54455067 T 19 CATAB v2.0f-lin.ifort 2020-Nov-12 15:52:52 2020-Nov-12 15:52
2143-Nov-13 02:26 00:04 Jupiter 1.92789077477884 1.92788889305904 1.92789265651485 1.73445514719903 1.45932546582221 2504090.601515618 3.95695021583469 551.06775254398 289.560385161317 42.4508713897547 508042.125777077 T 19 CATAB v2.0f-lin.ifort 2020-Nov-12 15:52:52 2020-Nov-12 15:52
2180-Jun-06 18:13 00:04 Jupiter 1.83841315839906 1.83841229285531 1.83841402395056 3.04262254004798 2.88722714449126 2517446.258980050 4.23865096555688 552.105759042187 23.1755765826978 89.8010919173401 1076885.09128294 T 19 CATAB v2.0f-lin.ifort 2020-Nov-12 15:52:52 2020-Nov-12 15:52

Alternate Designations
 2005 CY43 = 2002 TZ233 
Ephemeris | Orbit Diagram | Orbital Elements | Mission Design | Physical Parameters | Discovery Circumstances | Close-Approach Data ]
ABOUT SSD CREDITS/AWARDS PRIVACY/COPYRIGHT GLOSSARY LINKS
FirstGov 2020-Dec-03 04:28 UT
(server date/time)  
NASA Home Page
Site Manager:   Ryan S. Park
Webmaster  Alan B. Chamberlin